This is the latest recevied weather packets stored in our database for station/object W0BJ. If no packets are shown the sender has not sent any weather packets the latest 10 day(s).
| Time | Temp. | Humidity | Pressure | Rain* | Wind** | Luminosity | Snow |
|---|---|---|---|---|---|---|---|
| 1778114735 | 13.89° C | 44% | 1018.4 hPa | 0 mm | - | - | - |
| 1778114301 | 14.44° C | 46% | 1018.6 hPa | 0 mm | - | - | - |
| 1778114137 | 14.44° C | 46% | 1018.4 hPa | 0 mm | - | - | - |
| 1778113536 | 15° C | 42% | 1018.5 hPa | 0 mm | - | - | - |
| 1778113400 | 15° C | 43% | 1018.5 hPa | 0 mm | - | - | - |
| 1778112936 | 15° C | 41% | 1018.4 hPa | 0 mm | - | - | - |
| 1778112502 | 15° C | 41% | 1018.3 hPa | 0 mm | - | - | - |
| 1778112336 | 15° C | 41% | 1018.2 hPa | 0 mm | - | - | - |
| 1778111736 | 15° C | 41% | 1018.3 hPa | 0 mm | - | - | - |
| 1778111601 | 15.56° C | 41% | 1018.3 hPa | 0 mm | - | - | - |
| 1778111137 | 15.56° C | 42% | 1018.2 hPa | 0 mm | - | - | - |
| 1778110701 | 15.56° C | 40% | 1018.1 hPa | 0 mm | - | - | - |
| 1778110537 | 15.56° C | 40% | 1018.3 hPa | 0 mm | - | - | - |
| 1778109936 | 16.11° C | 42% | 1018.2 hPa | 0 mm | - | - | - |
| 1778109800 | 16.11° C | 40% | 1018.1 hPa | 0 mm | - | - | - |
| 1778109336 | 16.11° C | 41% | 1018.2 hPa | 0 mm | - | - | - |
| 1778108902 | 16.67° C | 39% | 1018.3 hPa | 0 mm | - | - | - |
| 1778108736 | 16.67° C | 39% | 1018.4 hPa | 0 mm | - | - | - |
| 1778108136 | 17.22° C | 36% | 1018.3 hPa | 0 mm | - | - | - |
| 1778108001 | 17.78° C | 36% | 1018.4 hPa | 0 mm | - | - | - |
| 1778107535 | 17.78° C | 37% | 1018.3 hPa | 0 mm | - | - | - |
| 1778107101 | 17.22° C | 39% | 1018.2 hPa | 0 mm | - | - | - |
| 1778106937 | 17.22° C | 37% | 1018.3 hPa | 0 mm | - | - | - |
| 1778106336 | 17.22° C | 39% | 1018.5 hPa | 0 mm | - | - | - |
| 1778106200 | 17.22° C | 38% | 1018.5 hPa | 0 mm | - | - | - |
* Rain latest hour (hover to see other rain measurements)
** Current wind speed in m/s (hover to see current wind gust speed)